Вернуться в каталог

STARLINK-11617

АктивенСвязьVLEO
NORAD 63184·PAYLOAD·🇺🇸 United States

Запущен Mar 13, 2025 с Cape Canaveral Space Force Station

Loading…

Ближайшие Пролёты (ближайшие 24 часа)

TLE

СвежийSource: CelesTrak SupGP

Эпоха: Sep 14, 2026, 20:51 UTC

1 63184C 25048B   26257.86923611  .00014072  00000+0  10933-3 0  2578
2 63184  43.0007 259.8189 0001611 254.0375  32.1645 15.70823210    16

Отслеживайте STARLINK-11617 в реальном времени с AllMySat

Download on the App Store